Regional Weather Roundup
Issued by NWS

Home | Current Version | Previous Version | Text Only | Print | Product List | Glossary Off
Versions: 1 2 3 4 5 6 7 8 9 10 11 12 13 14 15 16 17 18 19 20 21 22 23 24 25 26 27 28 29 30 31 32 33 34 35 36 37 38 39 40 41 42 43 44 45 46 47 48 49 50

000
ASUS43 KMKX 281111
RWRWI

WISCONSIN REGIONAL WEATHER ROUNDUP
NATIONAL WEATHER SERVICE MILWAUKEE/SULLIVAN WI
600 AM CDT TUE APR 28 2015

NOTE: "FAIR" INDICATES FEW OR NO CLOUDS BELOW 12,000 FEET WITH NO
SIGNIFICANT WEATHER AND/OR OBSTRUCTIONS TO VISIBILITY.

WIZ001-002-006>008-014>016-023>028-281200-
NORTHWEST WISCONSIN

CITY           SKY/WX    TMP DP  RH WIND       PRES   REMARKS
SUPERIOR ARPT  CLEAR     28  28  97 CALM      30.17R
ASHLAND        CLEAR     29  28  96 S3        30.17R
HAYWARD        CLEAR     30  27  88 CALM      30.16R
SIREN          CLEAR     32  28  86 CALM      30.15S
CUMBERLAND     CLEAR     34  32  93 CALM      30.16S
RICE LAKE      CLEAR     35  32  90 CALM      30.18S
CHETEK         CLEAR     34  32  91 CALM      30.17S
LADYSMITH      PTCLDY    35  30  81 E5        30.19R WCI  31
EAU CLAIRE     CLEAR     34  32  92 CALM      30.17R
MENOMONIE      FAIR      38  32  79 CALM      30.17S
NEW RICHMOND   PTCLDY    36  31  81 CALM      30.15F
OSCEOLA        CLEAR     38  31  73 CALM      30.17S
$$

WIZ003>005-009-010-017-018-281200-
NORTH CENTRAL WISCONSIN

CITY           SKY/WX    TMP DP  RH WIND       PRES   REMARKS
MANITOWISH WTR CLEAR     28  28 100 CALM      30.16S
ARBOR VITAE    CLEAR     32  28  86 CALM      30.17R
WOODRUFF       CLEAR     32  28  86 CALM      30.17R
RHINELANDER    CLEAR     30  26  85 CALM      30.17R
EAGLE RIVER    CLEAR     28  28 100 CALM      30.16R FOG
LAND O LAKES   CLEAR     26  26  97 CALM      30.16S
PHILLIPS       CLEAR     29  27  93 CALM      30.16S
TOMAHAWK       CLEAR     27  25  93 CALM      30.17S
MEDFORD        CLEAR     33  31  92 CALM      30.17R
MERRILL        CLEAR     28  27  96 CALM      30.17F
$$

WIZ029-030-035-036-043>047-281200-
CENTRAL WISCONSIN

CITY           SKY/WX    TMP DP  RH WIND       PRES   REMARKS
WAUSAU         CLEAR     36  33  89 NW3       30.16R
MOSINEE        CLEAR     36  34  93 CALM      30.18R
MARSHFIELD     CLEAR     37  33  85 CALM      30.17S
STEVENS POINT  CLEAR     28  27  94 CALM      30.18S
WAUPACA        CLEAR     34  32  92 CALM      30.18R
WAUTOMA        CLEAR     29  28  96 CALM      30.19R
WISC RAPIDS    CLEAR     33  30  88 CALM      30.19R
CAMP DOUGLAS   FOG       29  29 100 CALM      30.17R VSB 1/4
$$

WIZ011>013-019>022-031-037>040-048>050-281200-
NORTHEAST WISCONSIN

CITY           SKY/WX    TMP DP  RH WIND       PRES   REMARKS
ANTIGO         CLEAR     30  29  98 CALM      30.17R
SHAWANO        CLEAR     34  32  92 CALM      30.18S
OCONTO         CLEAR     30  30 100 CALM      30.18R
STURGEON BAY   CLEAR     36  32  87 CALM      30.19S
GREEN BAY      CLEAR     35  32  88 NW5       30.17S WCI  31
MANITOWOC      CLEAR     37  33  85 N5        30.17S WCI  33
APPLETON       CLEAR     36  28  75 N5        30.17F WCI  32
CLINTONVILLE   CLEAR     32  30  93 CALM      30.18R FOG
OSHKOSH        CLEAR     35  31  85 NW3       30.16S
$$

WIZ032>034-041-042-053>061-281200-
SOUTHWEST WISCONSIN

CITY           SKY/WX    TMP DP  RH WIND       PRES   REMARKS
LA CROSSE      CLEAR     41  34  76 CALM      30.16R
SPARTA         CLEAR     29  28  96 CALM      30.18R
VIROQUA        CLEAR     37  34  89 E7        30.16R WCI  32
BOSCOBEL       CLEAR     35  32  88 E3        30.17R
PRAIRIE DU CHI CLEAR     38  35  89 CALM      30.15R
PLATTEVILLE    CLEAR     37  33  85 E10       30.14S WCI  30
$$

WIZ056-057-062-063-064-067-068-281200-
SOUTH CENTRAL WISCONSIN

CITY           SKY/WX    TMP DP  RH WIND       PRES   REMARKS
REEDSBURG      CLEAR     35  34  94 CALM      30.16S
BARABOO/DELLS  CLEAR     32  30  92 CALM      30.17R
LONE ROCK      CLEAR     35  31  85 CALM      30.17R
MINERAL POINT  FAIR      41  34  75 E6        30.14S
MADISON        PTCLDY    33  31  92 CALM      30.16S
MIDDLETON      CLEAR     33  32  96 CALM      30.17R
WATERTOWN      CLEAR     33  33 100 CALM      30.16R
MONROE         CLEAR     39  34  81 SE3       30.15R
JANESVILLE     CLEAR     36  34  93 CALM      30.15S
$$

WIZ051-052-058>065-066-070>072-281200-
SOUTHEAST WISCONSIN

CITY           SKY/WX    TMP DP  RH WIND       PRES   REMARKS
MILWAUKEE      CLEAR     39  31  72 NW3       30.16R
WAUKESHA       CLEAR     36  30  80 CALM      30.16S
MILWAUKEE/TIMM CLEAR     36  30  80 CALM      30.17R
RACINE         CLEAR     40  33  76 N9        30.16S WCI  34
BURLINGTON     CLEAR     30  28  92 CALM      30.16R
KENOSHA        CLEAR     38  32  79 N5        30.15R WCI  34
FOND DU LAC    CLEAR     31  28  89 CALM      30.17S
SHEBOYGAN      CLEAR     35  31  85 NW5       30.16S WCI  31
WEST BEND      CLEAR     32  32 100 W3        30.16S
JUNEAU         CLEAR     33  31  90 N3        30.18R
$$

LSZ147-162-281200-
LAKE SUPERIOR

STATION/POSITION TIME  TEMP    WIND        PRES    WAVE
                       AIR SEA DIR/SP/G            HT/PER
                 (UTC) (F)     (DEG/KT/KT) (MB)    (FT/S)
W MID LAKE BUOY  1050   36 33  320/  2/  4 1022.6R   0
DEVILS ISLAND    1100   38     260/  6/  7 1022.0R
PORT WING        1000   31     160/  3/  4 1021.3
SAXON HARBOR     1040   31        CALM     1021.3R
$$

LMZ867-665-643>646-281200-
LAKE MICHIGAN

STATION/POSITION TIME  TEMP    WIND        PRES    WAVE
                       AIR SEA DIR/SP/G            HT/PER
                 (UTC) (F)     (DEG/KT/KT) (MB)    (FT/S)
CHAMBERS ISLAND  1000   35     240/  2/  3 1021.7R
NORTHPORT PIER   1000   38     290/  3/  4 1021.3R
SISTER BAY       1047   37        CALM       N/A
KEWAUNEE LAKESHO 1000   36     290/  3/  5 1020.5R
SHEBOYGAN LAKESH 1100   39     320/  6/  7 1022.0R
PORT WASHINGTON  1000   40     320/  5/  6 1021.7S
MILWAUKEE LAKESH 1000   42     350/  5/  6   N/A
KENOSHA   LAKESH 1100   42     350/  7/  9 1021.0R
$$

TC  - TEMPERATURE IN CELSIUS
VSB - VISIBILITY IN STATUTE MILES
WCI - WIND CHILL INDEX
HX  - HEAT INDEX



USA.gov is the U.S. government's official web portal to all federal, state and local government web resources and services.